Hourly Weather Roundup
Issued by NWS Central Illinois

Home | Current Version | Previous Version | Text Only | Print | Product List | Glossary On
Versions: 1 2 3 4 5 6 7 8 9 10 11 12 13 14 15 16 17 18 19 20 21 22 23 24 25 26 27 28 29 30 31 32 33 34 35 36 37 38 39 40 41 42 43 44 45 46 47 48 49 50
000
NZUS43 KILX 061610
HWRILX

AREA WEATHER ROUNDUP
NATIONAL WEATHER SERVICE, LINCOLN IL
1000 AM CST SAT FEB 06 2016


CITY           SKY/WX    TMP DP  RH WIND       PRES   REMARKS
BLOOMINGTON    SUNNY     34  30  85 SW12      30.30S WCI  25
CHAMPAIGN      SUNNY     34  28  79 S9        30.32F WCI  27
DANVILLE       SUNNY     32  26  77 S8        30.30S WCI  25
DECATUR        SUNNY     37  27  67 S6        30.32F WCI  32
EFFINGHAM      SUNNY     38  29  71 E3        30.35F
FLORA          SUNNY     38  29  68 S3        30.35S
GALESBURG      SUNNY     35  26  70 S9        30.26S WCI  28
JACKSONVILLE   SUNNY     39  28  64 S5        30.30S
LACON          SUNNY     33  26  76 SW7       30.28S WCI  27
LAWRENCEVILLE  SUNNY     36  28  73 S5        30.36S WCI  32
LITCHFIELD     SUNNY     35  27  73 S6        30.31F WCI  29
$$


CITY           SKY/WX    TMP DP  RH WIND       PRES   REMARKS
LINCOLN        SUNNY     35  30  82 S9        30.30F WCI  27
MACOMB         SUNNY     35  26  67 S6        30.29S WCI  30
MATTOON        SUNNY     36  26  67 S8        30.32S WCI  30
MT CARMEL AP   SUNNY     36  28  75 CALM      30.36S
OLNEY-NOBLE AP SUNNY     36  30  80 S3        30.36S
PARIS          SUNNY     35  28  74 S5        30.34F WCI  31
PEORIA         SUNNY     35  26  69 S7        30.29F WCI  29
PONTIAC        SUNNY     35  29  80 SW9       30.30S WCI  27
RANTOUL        SUNNY     35  29  79 S6        30.31F WCI  30
ROBINSON       SUNNY     34  27  75 SE3       30.37F
SPRINGFIELD    SUNNY     38  27  64 SE6       30.31F WCI  33
TAYLORVILLE    SUNNY     36  28  75 S5        30.32S WCI  32
$$

...REGIONAL REPORTS...


CITY           SKY/WX    TMP DP  RH WIND       PRES   REMARKS
CHICAGO O`HARE MOSUNNY   32  23  69 SW12      30.25F WCI  23
KANKAKEE       SUNNY     33  28  79 SW12G17   30.31R WCI  25
MOLINE         SUNNY     36  22  56 W7        30.26R WCI  30
MOUNT STERLING SUNNY     38  25  59 S7        30.27F WCI  32
MOUNT VERNON   SUNNY     39  27  60 S3        30.36R
PITTSFIELD     SUNNY     37  28  70 S5        30.30S WCI  33
QUINCY         SUNNY     37  23  56 S10       30.27F WCI  30
ROCKFORD       CLOUDY    30  25  81 SW6       30.26S WCI  24
$$


CITY           SKY/WX    TMP DP  RH WIND       PRES   REMARKS
BURLINGTON     SUNNY     34  25  69 SW6       30.26R WCI  29
CEDAR RAPIDS   CLOUDY    30  28  92 W7        30.23S FOG     WCI  23
DES MOINES     CLOUDY    30  27  88 W5        30.24S FOG     WCI  25
KIRKSVILLE     SUNNY     39  23  52 NW3       30.26S
OTTUMWA        SUNNY     32  27  81 SW5       30.25S WCI  27
ST LOUIS       MOSUNNY   44  22  41 SW3       30.32S
$$


CITY           SKY/WX    TMP DP  RH WIND       PRES   REMARKS
TERRE HAUTE    SUNNY     34  26  72 CALM      30.35F
EVANSVILLE     CLOUDY    42  28  57 W3        30.37R
INDIANAPOLIS   PTSUNNY   31  25  78 SW7       30.33R WCI  24
LAFAYETTE      SUNNY     31  24  75 SW7       30.33F WCI  24
MADISON        CLOUDY    28  23  81 VRB7      30.18F WCI  21
MILWAUKEE      CLOUDY    31  22  69 W12       30.20F WCI  22
$$





USA.gov is the U.S. government's official web portal to all federal, state and local government web resources and services.